Location: Chélan
(43.3430°N, 0.5495°E)
Time: 11:04:06
(UTC+00:00)

Daily predictions for brighter satellites

Satellite Brightness Start Highest point End
(mag) Time Altitude Azimuth Time Altitude Azimuth Time Altitude Azimuth
SL-16 R/B 3.3 19:10:37 10° SSE 19:14:55 23° E 19:19:15 10° NE
Okean O Rocket 3.7 19:17:57 10° ENE 19:18:56 11° ENE 19:19:55 10° NE
CZ-4 R/B 1.9 19:20:10 10° SE 19:23:34 35° ENE 19:26:57 10° N
SPOT 5 2.7 19:22:43 10° SSE 19:27:11 66° ENE 19:31:32 10° N
NOSS 3-4 (A) 3.9 19:22:45 10° SW 19:27:55 57° NW 19:33:35 10° NNE
NOSS 3-4 (C) 3.9 19:23:15 10° SW 19:28:26 58° NW 19:34:09 10° NNE
Cosmos 1656 Rocket 4.2 19:27:08 10° NNW 19:32:18 41° ENE 19:37:23 11° SE
Cosmos 1025 Rocket 4.2 19:29:40 10° NNE 19:33:11 24° ENE 19:36:27 11° SE
Helios 1A Rocket 2.8 19:31:27 10° NNE 19:34:28 36° E 19:37:26 10° S
Cosmos 1733 Rocket 3.0 19:30:37 10° S 19:34:55 65° E 19:39:17 10° NNE
CZ-4B R/B 3.8 19:31:27 10° SSE 19:35:07 59° ENE 19:38:56 10° N
Terra 2.7 19:32:23 10° SE 19:36:32 32° ENE 19:40:41 10° N
SJ-6B 3.9 19:33:34 10° S 19:37:02 42° W 19:40:29 10° NNW
Cosmos 2242 Rocket 3.6 19:33:04 10° N 19:37:29 62° E 19:41:49 10° SSE
BREEZE-M DEB (TANK) 3.3 19:35:54 10° NW 19:38:19 34° NNE 19:42:51 10° E
IRAS Rocket 4.2 19:34:13 10° SSE 19:39:39 73° ENE 19:45:08 10° NNW
Gblst 52 Del rocket 4.5 19:34:56 10° WSW 19:40:45 87° NNW 19:47:24 10° ENE
Resurs 01 Rocket 3.8 19:37:18 10° SSW 19:41:01 27° W 19:44:46 10° NW
Cosmos 1821 Rocket 4.0 19:35:15 10° S 19:41:27 68° E 19:47:46 10° NNE
Cosmos 2237 Rocket 2.9 19:36:53 10° SW 19:42:29 61° WNW 19:48:09 10° NNE
Meteor 2-15 4.5 19:37:19 10° S 19:43:23 88° E 19:49:31 10° N
Cosmos 2218 Rocket 4.1 19:41:21 10° S 19:47:29 80° W 19:53:41 10° N
CSL-04 Rocket 3.8 19:42:45 10° SSE 19:48:19 86° WSW 19:53:53 10° NNW
Meteor 2-15 Rocket 4.4 19:44:49 10° S 19:50:51 73° E 19:56:57 10° NNE
BREEZE-M DEB (TANK) 4.0 19:49:50 10° WNW 19:51:55 27° N 19:55:13 10° ENE
Cosmos 1346 Rocket 3.2 19:49:39 10° N 19:53:00 35° ENE 19:55:10 18° SE
SL-4 R/B 3.0 19:53:10 10° S 19:56:10 22° SE 19:57:34 18° ESE
Cosmos 1400 Rocket 2.6 19:52:53 10° SSW 19:56:28 78° W 20:00:06 10° N
BREEZE-M DEB (TANK) 3.8 19:53:05 10° S 19:56:40 39° ESE 20:06:43 10° NE
OAO 3 Rocket 4.3 19:52:55 10° WSW 19:56:49 27° S 19:59:27 17° SE
Cosmos 1812 0.6 19:56:46 22° SSW 19:57:40 76° W 19:59:19 10° N
Meteor 1-31 Rocket 2.8 19:56:13 10° S 19:59:43 70° WSW 20:03:14 10° NNW
Cosmos 1602 4.4 19:58:26 10° NNE 19:59:37 16° ENE 19:59:37 16° ENE
TIMED 4.5 19:56:46 10° NNW 20:01:01 84° WSW 20:04:50 13° SSE
Cosmos 1943 Rocket 4.0 19:57:28 10° NW 20:02:14 28° WSW 20:06:57 10° SSW
ASTEX 1 4.2 19:59:47 18° SE 20:02:45 33° ENE 20:07:09 10° NNE
Gbstr 26 Del rocket 4.1 19:58:29 10° SSW 20:03:09 29° SE 20:06:31 13° E
USA 59 Rocket 0.1 20:00:32 10° NW 20:04:06 69° SW 20:07:46 16° SSE
Feng Yun 1-1 Rocket 4.2 20:00:14 10° SSE 20:05:44 85° ENE 20:11:11 10° NNW
Cosmos 1869 4.2 20:06:01 23° ESE 20:06:27 23° E 20:09:20 10° NE
ADEOS 3.6 20:06:32 15° SSE 20:10:46 65° ENE 20:15:57 10° N
Cosmos 2369 Rocket 2.8 20:06:38 10° NNW 20:11:53 40° ENE 20:14:59 22° ESE
USA 186 3.2 20:14:08 15° NE 20:14:08 15° NE 20:15:00 10° NNE
CBERS 1 LM4 rocket 4.3 20:10:01 14° SSE 20:14:02 83° ENE 20:18:50 10° NNW
SL-08 R/B 3.4 20:11:00 10° NNE 20:15:51 58° E 20:20:39 10° S
MOS 1 4.3 20:10:24 11° SSE 20:15:55 90° ESE 20:21:37 10° NNW
Cosmos 2285 Rocket 4.0 20:12:35 10° S 20:18:51 62° ESE 20:25:05 10° NNE
Cosmos 2221 Rocket 3.8 20:16:13 10° N 20:20:33 53° E 20:22:40 28° SE
YAOGAN 11 4.4 20:17:01 10° NNE 20:21:06 42° E 20:23:06 25° SSE
USA 234 3.2 20:14:43 10° NE 20:21:17 74° SE 20:27:49 10° SW
SKYMED 3 4.2 20:19:53 10° NNE 20:23:47 85° ESE 20:27:40 10° SSW
Cosmos 405 Rocket 4.0 20:22:58 10° NNE 20:24:26 17° NE 20:24:26 17° NE
Cosmos 1943 3.9 20:23:24 23° SE 20:25:47 32° ESE 20:30:45 10° NE
Molniya-1 2.9 20:24:34 10° SW 20:27:02 89° WNW 20:31:44 10° NE
CZ-4B R/B 4.2 20:27:35 19° ENE 20:27:35 19° ENE 20:29:51 10° NNE
CZ-4B R/B 3.3 20:23:42 15° SSE 20:28:22 84° WSW 20:34:04 10° NNW
Cosmos 2278 Rocket 4.4 20:24:57 10° NW 20:29:08 21° W 20:33:18 10° SSW
SL-8 R/B 4.1 20:26:38 10° W 20:31:20 63° NNW 20:36:02 10° ENE
OAO 2 Rocket 4.2 20:29:09 10° WSW 20:33:41 32° S 20:34:48 29° SSE
SL-08 R/B 4.5 20:28:02 10° N 20:34:14 66° E 20:37:59 25° SSE
Cosmos 1975 Rocket 4.2 20:31:57 10° NNE 20:35:40 25° ENE 20:35:59 25° E
ERS-1 Rocket 3.5 20:33:54 13° S 20:38:12 57° W 20:43:09 10° NNW
Cosmos 1674 Rocket 4.3 20:37:52 10° NNW 20:42:05 50° W 20:45:17 16° SSW
Cosmos 2263 4.5 20:37:35 10° NNW 20:43:07 53° ENE 20:45:15 35° ESE
Cosmos 2292 Rocket 3.7 20:41:43 10° NNW 20:45:42 55° W 20:47:05 31° SSW
Okean-O 2.5 20:44:32 42° SSE 20:45:58 76° ENE 20:50:21 10° N
Cosmos 2298 Rocket 4.1 20:42:31 10° SSW 20:47:48 78° WNW 20:53:09 10° NNE
Cosmos 1908 Rocket 3.8 20:45:39 15° SSW 20:49:13 67° W 20:53:32 10° N
Cosmos 44 4.4 20:44:26 10° SW 20:49:20 49° NW 20:54:31 10° NNE
NOSS 2-1 (E) 4.5 20:48:27 10° NW 20:51:52 36° WSW 20:53:26 27° SSW
Okean O Rocket 1.5 20:53:05 44° S 20:54:27 84° WSW 20:58:47 10° NNW
BREEZE-M DEB (TANK) 4.4 20:51:11 10° WNW 20:55:58 30° SW 20:56:25 28° SW
CZ-4B R/B 3.8 20:55:25 40° E 20:56:08 43° ENE 21:00:37 10° N
CZ-4 R/B 3.9 20:55:20 10° SW 20:57:42 16° W 21:00:03 10° NW
Ariane Rocket 3.5 20:57:13 37° E 20:58:01 40° ENE 21:02:41 10° N
SL-16 R/B 2.9 20:53:03 10° SW 20:58:35 54° WNW 21:04:09 10° NNE
Cosmos 1782 Rocket 3.3 20:58:38 57° SSE 20:59:25 77° E 21:03:44 10° NNE
Cosmos 1934 Rocket 4.0 20:54:46 14° S 21:00:18 84° W 21:06:31 10° N
Geosat 4.2 20:57:13 10° NNE 21:02:13 73° WNW 21:07:11 10° SW
Spot 2 Rocket 3.7 21:03:20 35° S 21:05:23 67° WSW 21:10:24 10° NNW
USA 245 3.9 21:05:18 55° SE 21:06:15 70° ENE 21:11:41 10° N
MOS 1-B 4.5 21:06:46 32° S 21:09:29 70° WSW 21:15:17 10° NNW
Cosmos 1269 Rocket 4.1 21:04:18 10° NNW 21:09:30 57° ENE 21:10:20 51° ESE
ATLAS 5 CENTAUR R/B 3.6 21:07:22 10° N 21:10:07 17° NE 21:11:03 16° NE
Cosmos 1140 Rocket 3.4 21:06:57 10° NNW 21:12:04 65° ENE 21:12:46 58° ESE
Terra 3.5 21:10:46 14° SSW 21:14:01 28° W 21:18:02 10° NW
NOSS 3-1 (C) 4.0 21:12:17 10° NW 21:19:34 86° SW 21:23:02 41° SSE
Cosmos 1862 4.3 21:20:38 10° N 21:22:56 36° NNE 21:22:56 36° NNE
Cosmos 1447 Rocket 4.5 21:20:31 10° N 21:26:43 63° E 21:27:42 55° ESE
Cosmos 2058 3.6 21:24:42 10° N 21:27:31 43° NNE 21:27:31 43° NNE
Cosmos 407 Rocket 4.0 21:24:05 10° N 21:28:57 43° ENE 21:28:57 43° ENE
SL-4 R/B 3.6 21:29:28 10° WSW 21:31:14 26° WSW 21:31:14 26° WSW
Cosmos 371 Rocket 4.2 21:29:08 10° N 21:33:16 37° NE 21:33:16 37° NE
COSMOS 2455 3.0 21:34:40 10° NNW 21:40:37 58° NE 21:41:17 54° E
SJ 16-02 2.9 21:37:54 10° N 21:40:32 25° NE 21:40:32 25° NE
Cosmos 1315 Rocket 4.0 21:43:33 37° WNW 21:43:33 37° WNW 21:46:48 10° N
SPOT 3 Rocket 3.9 21:48:49 53° SW 21:49:21 55° W 21:54:26 10° NNW
Gbstr 26 Del rocket 3.6 21:44:22 10° WSW 21:48:40 56° WNW 21:48:40 56° WNW
Cosmos 1605 Rocket 4.3 21:47:33 37° SW 21:49:54 61° W 21:55:59 10° N
Lacrosse 5 rocket 3.6 21:51:44 10° NNW 21:52:47 16° N 21:52:47 16° N
Cosmos 2369 Rocket 3.4 21:50:53 10° NW 21:55:43 31° WSW 21:56:46 29° SW
SeaSat 1 4.2 21:56:42 21° NE 21:56:53 21° NE 22:00:32 10° N
Cosmos 2173 Rocket 4.1 22:03:21 57° ENE 22:03:21 57° ENE 22:08:46 10° NNE
USA 234 4.3 21:57:56 10° NE 22:04:02 43° NNW 22:10:08 10° W
Cosmos 1603 3.7 22:07:59 78° N 22:07:59 78° N 22:13:21 10° NNE
Cosmos 921 Rocket 4.2 22:03:32 10° NNW 22:06:41 40° WNW 22:06:41 40° WNW
Cosmos 1943 4.4 22:04:58 13° WSW 22:09:39 40° WNW 22:14:58 10° NNE
Meteor 2-3 Rocket 4.1 22:09:19 10° N 22:14:03 53° NE 22:14:03 53° NE
NOSS 3-1 (A) 4.0 22:12:01 10° NW 22:19:23 81° WSW 22:20:42 66° S
Cosmos 2100 Rocket 3.9 22:26:44 81° NNW 22:26:44 81° NNW 22:32:38 10° N
Cosmos 1656 4.2 22:40:09 10° NNW 22:44:20 54° NNW 22:44:20 54° NNW
ATLAS 3B R/B 4.2 22:45:19 10° NNW 22:52:14 33° NE 22:55:41 23° ENE
ATLAS 5 CENTAUR R/B 3.4 22:48:10 10° NW 22:50:11 28° NW 22:50:11 28° NW
Cosmos 1833 Rocket 4.0 23:01:17 31° NE 23:01:17 31° NE 23:04:15 10° NNE
Cosmos 1725 Rocket 4.3 23:08:52 63° NW 23:08:52 63° NW 23:14:29 10° N
DEBRIS 4.5 23:14:40 50° NW 23:15:42 59° N 23:29:36 10° ENE
Cosmos 2233 Rocket 4.3 23:18:32 63° N 23:18:32 63° N 23:23:44 10° N
SJ 16-02 3.9 23:16:03 10° NW 23:17:02 15° NW 23:17:02 15° NW
ATLAS 2AS CENTAUR R/B 2.9 23:25:29 66° NNE 23:25:29 66° NNE 23:31:16 10° NE
CZ-2C R/B 4.0 23:29:07 32° NE 23:29:07 32° NE 23:32:58 10° N
SeaSat 1 4.1 23:36:18 29° NW 23:36:18 29° NW 23:38:43 10° NNW
ACS3 Solar Sail 3.7 23:41:48 10° NE 23:44:47 17° ENE 23:44:47 17° ENE
Cosmos 1697 Rocket 3.7 23:43:29 10° NNW 23:47:06 42° NNW 23:47:06 42° NNW
